Wind_Speed
12 13 13 13 13 14 14 14 14 14 14 14 14 14 15 15 15 16 16 15 15 15 16 16 17 17 18 19 20 21 22 23 24 25 26 27 27 28 28 29 30 30 30
15 15 16 16 16 16 16 17 17 17 17 16 16 16 16 17 17 17 17 17 18 18 18 18 18 19 19 20 21 22 23 25 26 26 27 28 29 29 30 31 32 32 33
18 19 19 20 20 20 20 20 20 20 20 21 20 20 19 19 19 19 20 20 20 20 21 21 21 21 22 22 23 23 24 25 26 27 28 29 30 30 31 32 33 34 35
21 23 24 24 25 24 23 23 24 24 24 24 24 24 23 22 23 23 23 23 23 24 23 24 25 25 26 26 26 27 27 28 29 30 31 31 32 32 33 34 35 35 36
25 26 28 29 28 28 27 27 27 27 26 26 26 26 26 26 26 26 26 27 27 27 27 27 29 29 30 30 31 31 32 33 33 33 34 35 35 35 36 37 37 38 39
29 30 31 31 30 30 30 30 29 28 29 29 29 29 29 30 30 30 29 30 30 31 31 32 33 33 33 34 35 35 37 37 37 38 38 39 39 40 41 41 42 43 44
32 33 34 34 33 33 32 31 31 31 31 31 30 30 30 31 31 31 32 33 34 35 35 36 37 37 38 39 39 40 41 42 43 43 43 44 45 46 46 47 47 48 48
35 37 37 37 36 35 35 33 32 30 30 29 30 31 31 32 33 34 35 36 37 38 39 39 40 41 42 43 44 45 46 46 47 48 48 49 50 50 51 51 51 52 53
37 38 38 37 34 33 32 33 32 31 31 30 30 31 32 34 36 36 36 37 39 40 41 42 43 44 46 48 49 49 49 50 51 52 53 54 54 54 55 56 56 57 57
39 37 36 34 32 30 29 29 28 30 30 30 31 33 35 36 38 38 39 40 40 41 43 45 47 48 49 51 52 52 52 54 55 56 57 58 58 59 59 60 61 61 62
40 37 35 34 32 31 30 30 30 30 32 33 34 35 37 38 39 41 42 43 44 45 46 48 50 51 53 54 55 55 57 58 59 60 61 62 62 62 63 63 64 65 65
40 37 36 36 34 34 33 33 34 34 35 36 37 37 38 41 43 44 46 46 48 49 50 52 54 55 57 58 59 60 61 62 62 63 64 64 65 65 66 66 67 68 67
40 40 39 37 37 37 37 37 37 37 38 38 39 41 42 44 45 47 48 50 51 53 55 56 58 59 61 62 63 63 64 64 65 66 67 67 67 68 68 68 68 68 68
43 42 41 41 39 39 40 41 41 41 42 42 43 45 46 48 49 50 51 53 55 57 59 61 62 64 65 66 66 66 67 67 68 68 69 69 69 69 68 68 68 68 68
45 45 44 44 43 42 43 43 43 44 45 46 47 48 50 51 52 54 55 57 59 61 63 64 65 67 67 68 68 68 69 69 68 68 68 68 68 67 67 67 67 66 65
46 46 45 45 45 45 45 46 48 48 49 50 50 51 53 54 56 57 59 60 61 63 64 65 65 66 67 68 69 69 69 68 67 67 66 66 65 65 65 64 61 60 60
47 46 46 46 47 48 48 48 48 49 51 51 52 53 55 56 58 60 61 62 62 63 63 65 65 66 67 67 66 64 63 63 63 62 61 61 60 59 59 56 55 54 54
47 47 47 48 48 49 49 49 50 51 52 52 54 56 57 58 59 60 61 61 61 62 62 62 63 63 62 62 60 58 57 57 57 55 54 54 53 52 51 50 50 49 49
47 46 46 46 47 48 49 50 51 52 52 54 55 56 57 57 58 58 59 59 59 58 57 57 57 56 55 55 54 53 53 51 51 50 48 47 46 45 45 45 44 44 44
45 45 46 47 48 49 50 51 51 51 53 54 54 55 56 56 56 55 55 54 53 53 51 50 50 48 48 47 47 46 45 44 43 41 41 40 39 39 38 38 38 39 40
44 45 46 48 48 48 49 50 51 51 52 52 52 53 53 52 51 50 48 47 46 45 44 43 43 42 41 40 39 38 37 36 35 35 35 35 34 34 34 34 34 35 37
44 45 45 46 46 47 47 48 49 50 50 50 50 49 49 48 46 44 42 41 39 38 37 36 35 34 33 32 31 31 30 30 30 30 31 31 30 30 31 32 32 33 34
41 42 43 44 44 45 46 47 47 47 47 47 46 45 44 43 41 39 37 35 32 31 29 28 28 27 26 26 26 26 26 26 26 26 26 26 27 28 29 30 30 31 32
39 40 41 42 42 43 43 44 44 44 43 43 41 40 38 36 33 31 29 26 24 23 23 22 22 22 22 22 22 23 23 23 23 23 23 24 25 27 28 29 29 29 30
36 37 38 39 40 40 41 41 40 39 38 36 33 30 27 25 23 21 19 18 18 18 18 18 18 18 19 19 19 20 20 20 20 21 22 23 25 26 27 28 29 29 29
34 35 35 36 36 36 35 35 33 31 29 25 22 19 17 16 15 14 14 14 14 14 14 14 15 15 15 16 16 17 17 18 19 20 22 23 24 24 25 26 26 27 28
Wind_Direction
258 263 266 270 273 277 280 281 284 287 290 292 292 295 297 297 297 298 298 294 292 292 292 291 289 287 286 285 285 285 286 286 285 284 283 283 281 279 279 278 277 275 275
260 262 265 268 271 274 274 276 278 279 281 283 285 287 290 292 293 294 293 291 290 291 291 291 289 288 286 285 285 285 285 284 284 284 283 282 281 280 279 279 278 275 274
261 262 265 265 266 269 271 273 274 274 276 277 278 279 281 284 287 289 289 288 287 288 289 289 287 286 285 285 286 285 285 285 285 285 285 284 283 281 280 280 279 277 275
262 263 266 267 265 266 268 269 270 273 274 274 274 275 277 279 280 282 283 283 283 284 285 286 285 285 285 284 284 283 283 283 283 284 284 284 283 282 281 281 279 278 277
263 263 266 266 265 266 269 270 270 271 273 273 273 273 274 275 276 278 279 279 280 282 283 283 283 283 283 282 283 283 282 282 283 283 283 282 282 281 281 281 280 279 278
263 264 268 267 266 269 270 269 268 268 272 274 274 274 276 277 278 278 280 280 279 279 281 281 282 282 281 281 281 282 282 282 281 282 282 282 281 281 281 280 279 278 277
266 265 266 269 269 271 271 271 269 267 269 271 272 273 276 278 279 278 279 279 278 279 279 280 281 281 281 280 281 281 281 281 281 281 281 282 281 280 280 279 278 277 277
268 268 268 271 271 272 273 272 268 269 269 270 271 273 277 278 278 277 277 278 279 279 279 279 280 281 281 281 281 281 281 280 281 281 281 281 281 280 280 279 279 278 277
274 275 274 275 277 278 279 275 273 273 273 273 275 276 279 279 279 279 278 279 279 278 278 279 279 279 280 280 281 281 281 281 281 281 281 281 280 280 280 280 279 278 278
275 279 281 281 281 283 287 283 282 280 280 279 279 280 279 279 280 280 279 279 279 278 279 280 279 278 279 279 280 280 281 281 281 281 281 281 280 280 279 279 279 279 278
279 283 283 284 286 287 290 288 288 284 282 283 282 281 280 279 280 280 280 280 279 279 279 280 279 279 279 279 279 280 280 280 280 280 280 280 280 280 279 279 279 278 278
282 286 289 290 290 289 290 290 288 286 285 285 283 281 281 281 280 280 280 280 280 280 280 280 279 279 279 279 279 280 280 280 280 280 280 279 279 279 279 278 278 278 278
287 291 291 291 291 291 289 288 286 284 285 284 283 281 281 281 281 281 280 280 280 281 281 281 280 280 280 280 280 280 280 280 280 279 279 279 279 279 278 278 278 278 278
292 292 292 292 291 289 287 284 282 282 283 283 282 282 282 281 281 281 281 281 281 282 282 281 281 280 280 281 281 280 280 280 280 279 278 279 279 279 279 279 278 278 278
290 289 291 291 289 287 285 284 282 282 282 283 282 281 282 282 281 281 281 281 282 282 281 281 281 280 280 280 280 279 279 280 280 279 279 279 279 280 280 279 279 279 279
288 288 288 287 284 283 283 283 282 281 281 282 282 281 282 283 283 283 283 283 282 282 282 282 281 281 281 281 280 279 279 280 281 281 281 281 281 280 280 279 280 279 279
284 284 284 283 282 282 282 282 281 282 283 283 283 283 284 284 284 283 283 283 282 282 282 282 282 281 281 282 283 283 283 282 283 282 282 282 281 281 281 280 280 279 278
284 284 282 281 280 280 281 282 282 283 283 284 285 286 285 285 284 283 283 283 282 283 283 282 282 282 282 283 284 284 284 284 285 284 284 283 283 282 282 281 279 278 277
282 282 282 281 282 283 283 283 283 284 285 286 287 287 286 286 285 285 284 285 285 284 285 285 285 285 285 285 285 286 286 286 286 286 286 284 284 283 281 280 279 279 279
281 281 281 282 283 284 285 285 286 285 286 287 287 287 287 287 286 287 287 288 288 288 289 288 288 288 288 288 288 288 288 288 288 288 287 285 284 283 282 280 280 280 280
281 282 284 285 286 287 287 288 289 289 289 289 290 289 289 289 289 289 290 291 291 292 292 292 292 292 292 292 292 292 292 292 291 291 291 290 288 287 285 285 285 284 284
283 285 287 287 288 289 290 291 291 291 291 292 292 292 292 292 292 292 294 294 295 295 295 295 295 296 297 297 297 296 295 294 293 294 294 294 294 293 293 293 292 290 289
288 290 291 292 292 293 294 295 296 296 296 296 295 295 295 294 293 294 295 296 296 297 297 299 300 300 301 300 300 300 299 298 298 298 298 298 299 299 299 298 297 297 296
293 293 294 296 296 297 298 299 299 299 298 298 297 296 295 294 294 295 297 298 299 300 302 304 304 305 306 306 305 305 305 305 305 304 303 304 305 305 305 304 304 303 302
296 298 298 299 300 300 300 301 301 301 300 300 300 299 298 298 298 300 302 304 306 308 309 311 313 314 313 313 312 311 312 312 312 311 311 313 313 313 313 312 312 312 311
299 300 301 302 303 303 305 306 307 307 306 307 308 308 309 310 311 313 315 318 320 322 324 326 327 327 325 325 325 325 324 323 321 321 320 320 321 321 320 319 319 319 318
Height
5893 5893 5892 5892 5892 5891 5891 5890 5889 5888 5886 5885 5884 5883 5882 5881 5879 5878 5877 5876 5875 5874 5873 5872 5871 5870 5870 5869 5868 5867 5866 5866 5865 5864 5864 5863 5863 5862 5862 5862 5861 5861 5861
5890 5890 5890 5889 5889 5888 5888 5887 5886 5885 5883 5882 5881 5880 5879 5877 5876 5875 5873 5872 5871 5870 5869 5868 5867 5866 5865 5864 5863 5862 5861 5860 5859 5859 5858 5857 5856 5856 5855 5855 5854 5854 5854
5887 5887 5886 5886 5885 5885 5884 5883 5882 5881 5880 5878 5877 5875 5874 5873 5872 5871 5869 5868 5866 5865 5864 5863 5862 5861 5860 5859 5858 5857 5856 5854 5853 5852 5851 5850 5849 5849 5848 5847 5847 5846 5846
5883 5882 5882 5881 5880 5879 5878 5878 5877 5876 5875 5873 5872 5871 5869 5868 5867 5866 5864 5863 5862 5860 5859 5858 5857 5855 5854 5853 5852 5851 5849 5848 5847 5846 5845 5843 5842 5841 5840 5839 5838 5838 5837
5878 5877 5876 5875 5874 5874 5872 5871 5870 5870 5869 5867 5866 5865 5864 5863 5861 5860 5859 5857 5856 5854 5853 5852 5850 5849 5848 5846 5845 5844 5842 5841 5839 5838 5837 5835 5834 5832 5831 5830 5829 5828 5827
5873 5871 5870 5868 5868 5867 5866 5864 5863 5862 5861 5860 5859 5858 5857 5856 5855 5854 5852 5851 5849 5848 5846 5845 5843 5842 5840 5839 5837 5836 5834 5832 5831 5829 5827 5826 5824 5823 5822 5820 5819 5818 5817
5866 5864 5863 5863 5861 5860 5859 5857 5855 5855 5854 5853 5852 5851 5850 5849 5848 5847 5845 5844 5842 5841 5839 5837 5835 5834 5832 5830 5828 5826 5825 5823 5821 5819 5817 5815 5813 5812 5810 5809 5807 5806 5805
5859 5857 5856 5855 5853 5851 5850 5849 5848 5847 5847 5845 5844 5843 5842 5842 5840 5839 5837 5835 5834 5832 5830 5829 5827 5825 5822 5820 5818 5816 5814 5812 5809 5807 5805 5803 5801 5799 5797 5795 5793 5792 5791
5852 5850 5848 5846 5844 5843 5842 5841 5840 5840 5839 5838 5837 5836 5835 5834 5832 5831 5828 5827 5825 5823 5821 5819 5817 5814 5812 5809 5806 5804 5802 5799 5797 5794 5792 5789 5787 5784 5782 5780 5778 5776 5775
5844 5842 5840 5839 5837 5836 5834 5833 5832 5832 5831 5830 5828 5827 5826 5824 5822 5821 5819 5817 5815 5813 5811 5808 5806 5803 5800 5797 5794 5791 5789 5786 5783 5780 5777 5774 5772 5769 5766 5764 5762 5760 5758
5836 5835 5833 5832 5830 5829 5828 5826 5825 5823 5823 5821 5820 5818 5816 5814 5812 5810 5808 5806 5804 5802 5799 5796 5793 5790 5787 5783 5780 5778 5774 5771 5767 5764 5761 5758 5755 5752 5750 5747 5745 5743 5740
5829 5827 5826 5824 5823 5821 5820 5819 5817 5816 5814 5812 5810 5808 5806 5804 5801 5799 5796 5793 5791 5789 5786 5783 5779 5776 5772 5769 5765 5762 5758 5755 5751 5747 5744 5740 5737 5734 5732 5729 5726 5724 5722
5821 5819 5818 5817 5815 5813 5811 5810 5808 5806 5804 5802 5800 5797 5795 5792 5790 5786 5783 5780 5777 5774 5771 5767 5763 5760 5756 5752 5748 5745 5741 5737 5733 5729 5725 5722 5719 5716 5713 5710 5707 5705 5702
5812 5810 5809 5807 5806 5803 5801 5799 5798 5796 5793 5791 5788 5785 5782 5780 5776 5773 5770 5766 5763 5759 5754 5751 5747 5742 5738 5734 5730 5727 5722 5719 5714 5710 5706 5703 5699 5696 5693 5691 5688 5685 5682
5803 5801 5799 5797 5795 5793 5791 5788 5786 5784 5782 5779 5776 5773 5769 5766 5762 5759 5755 5751 5747 5743 5738 5732 5729 5724 5720 5715 5711 5707 5703 5699 5695 5690 5686 5683 5680 5677 5674 5671 5668 5666 5663
5794 5791 5789 5787 5785 5782 5780 5777 5775 5772 5769 5766 5763 5759 5755 5751 5748 5743 5739 5734 5730 5725 5720 5714 5710 5705 5700 5695 5691 5688 5684 5680 5676 5672 5668 5664 5662 5659 5656 5653 5650 5647 5645
5783 5781 5778 5776 5773 5771 5768 5765 5762 5759 5756 5752 5749 5745 5741 5736 5732 5727 5722 5717 5712 5707 5702 5696 5690 5686 5682 5677 5673 5669 5665 5662 5658 5655 5651 5647 5644 5642 5639 5636 5633 5630 5628
5772 5770 5767 5764 5761 5758 5755 5752 5749 5746 5742 5738 5734 5729 5725 5720 5715 5710 5705 5699 5694 5689 5684 5678 5672 5667 5663 5659 5656 5652 5649 5646 5642 5639 5636 5632 5629 5626 5624 5621 5618 5616 5613
5761 5758 5756 5752 5749 5745 5742 5739 5735 5732 5727 5723 5718 5714 5709 5703 5698 5693 5687 5682 5677 5672 5666 5661 5656 5651 5647 5644 5641 5638 5634 5631 5627 5624 5621 5618 5616 5613 5610 5607 5605 5602 5599
5750 5747 5744 5741 5737 5733 5730 5726 5722 5717 5713 5708 5704 5698 5693 5687 5682 5677 5671 5666 5661 5656 5651 5646 5642 5637 5634 5630 5627 5624 5622 5618 5615 5611 5609 5606 5604 5601 5598 5595 5593 5590 5586
5739 5736 5732 5729 5725 5721 5717 5713 5708 5704 5699 5694 5688 5683 5678 5672 5667 5662 5657 5653 5648 5643 5638 5634 5630 5626 5623 5619 5616 5613 5610 5608 5605 5602 5599 5596 5593 5591 5588 5585 5582 5578 5574
5728 5725 5721 5717 5713 5709 5704 5699 5695 5690 5684 5679 5674 5668 5663 5659 5654 5650 5645 5641 5637 5632 5628 5624 5620 5617 5613 5610 5607 5604 5602 5599 5597 5594 5591 5587 5584 5581 5578 5575 5571 5567 5563
5718 5714 5710 5706 5701 5697 5692 5687 5681 5676 5670 5665 5660 5655 5650 5646 5642 5638 5634 5631 5627 5624 5620 5616 5613 5610 5607 5603 5601 5598 5595 5592 5590 5587 5584 5580 5577 5573 5569 5565 5562 5557 5553
5708 5704 5699 5695 5690 5685 5680 5675 5670 5664 5658 5653 5648 5643 5639 5635 5632 5628 5625 5623 5620 5617 5614 5611 5608 5605 5601 5598 5596 5593 5590 5587 5584 5581 5578 5575 5571 5566 5562 5557 5552 5548 5543
5698 5694 5689 5685 5680 5675 5670 5664 5659 5653 5648 5642 5637 5633 5630 5627 5624 5621 5619 5617 5615 5612 5610 5607 5604 5601 5598 5595 5592 5589 5586 5583 5580 5577 5573 5569 5565 5560 5554 5549 5544 5539 5534
5689 5685 5680 5676 5670 5665 5660 5654 5648 5643 5638 5634 5630 5627 5624 5622 5620 5617 5616 5614 5611 5609 5607 5604 5602 5599 5596 5593 5590 5587 5583 5580 5577 5573 5569 5564 5559 5555 5550 5544 5538 5532 5527